Тит-Ары

Россия / Республика Саха (Якутия)     71°59′15″N   127°05′27″E
темп.,
°C
ветер,
м/с
пор.,
м/с
влажн.,
%
обл.,
%
осадки,
мм/ч
давл.,
гПа
погр.,
м
27 февраля, сб
сб2700:00−33ююв128695 0.0 103319
03:00−31юв118797 0.0 103223
06:00−30юв1187100 0.0 103120
09:00−30ююв1190100 0.0 103119
12:00−29ююв1297100 0.1 1031114
15:00−29ююв1297100 0.2 1030129
18:00−30ююв2298100 0.1 102928
21:00−33ююв2210094 0.1 102919
28 февраля, вс
вс2800:00−34ююв229980 0.0 102819
03:00−35ююв1110040 0.0 102719
06:00−36в111000 0.0 102719
09:00−36ссв11990 0.0 102619
12:00−34с119523 0.0 102619
15:00−34ссв229626 0.0 102619
18:00−36св119840 0.0 102619
21:00−37ссв119843 0.0 102719
1 марта, пн
пн100:00−37с119955 0.0 102719
03:00−38с129955 0.0 102619
06:00−38с129981 0.0 102719
09:00−38с1110071 0.0 102719
12:00−37с119830 0.0 102620
15:00−37сз119848 0.0 102619
18:00−39сз0010079 0.0 102719
21:00−39юз1110072 0.0 102719
2 марта, вт
вт200:00−39ююз1110081 0.0 102718
03:00−39ю1210081 0.0 102718
06:00−40ююв119983 0.0 102818
09:00−39ююв1110076 0.0 102818
12:00−37ююв119662 0.0 102819
15:00−37юв019652 0.0 102819
18:00−39св0010014 0.0 102919
21:00−37св009649 0.0 103019
3 марта, ср
ср300:00−38с1110094 0.0 103019
03:00−38ссв0110094 0.0 103019
06:00−37с119990 0.0 103019
09:00−38с119978 0.0 102919
12:00−36ссв119759 0.0 102919
15:00−35ссв119751 0.0 102819
18:00−37ссв119912 0.0 102819
21:00−37ссв1110025 0.0 102719